CW5111 Weather Reports


Display with metric or nautical units.
time (UTC)temp
F
wind
direction
speed
MPH
gust
MPH
rain 1hr
in
rain 24hr
in
rain mn
in
humidity
%
barometer
mb
20260502151503 63 216 2.0 5.0 0.00 0.00 0.00 62 1013.0
20260502123003 63 192 3.0 11.0 0.00 0.00 0.00 59 1015.2
20260502121503 65 244 3.0 8.0 0.00 0.00 0.00 62 1015.3
20260502114504 62 203 3.0 7.0 0.00 0.00 0.00 60 1015.8
20260502113004 63 186 3.0 9.0 0.00 0.00 0.00 58 1015.8
20260502111504 62 151 4.0 9.0 0.00 0.00 0.00 62 1015.9
20260502110004 63 171 3.0 7.0 0.00 0.00 0.00 63 1016.2
20260502104503 62 179 3.0 10.0 0.00 0.00 0.00 65 1016.6
20260502103003 63 227 3.0 10.0 0.00 0.00 0.00 63 1016.5
20260502101504 61 228 2.0 7.0 0.00 0.00 0.00 68 1016.4
20260502091504 59 225 2.0 5.0 0.00 0.00 0.00 71 1017.1
20260502071504 50 229 1.0 3.0 0.00 0.00 0.00 89 1017.6
20260502070004 49 237 1.0 3.0 0.00 0.00 0.00 89 1017.6
20260502064503 49 246 1.0 3.0 0.00 0.00 0.00 91 1017.4
20260502063003 49 257 2.0 4.0 0.00 0.00 0.00 92 1017.4
20260502061503 48 246 2.0 5.0 0.00 0.00 0.00 94 1017.4
20260502060005 47 240 1.0 4.0 0.00 0.00 0.00 94 1017.3
20260502054503 47 224 1.0 3.0 0.00 0.00 0.00 94 1017.2
20260502053003 46 225 1.0 3.0 0.00 0.00 0.00 94 1017.2
20260502051503 46 232 1.0 3.0 0.00 0.00 0.00 94 1017.2
20260502050004 45 235 1.0 3.0 0.00 0.00 0.00 94 1017.2
20260502044504 45 198 1.0 2.0 0.00 0.00 0.00 93 1017.3
20260502043003 45 194 1.0 2.0 0.00 0.00 0.00 93 1017.2
20260502041504 46 183 1.0 2.0 0.00 0.00 0.00 93 1017.2
20260502040005 46 176 1.0 2.0 0.00 0.00 0.00 92 1017.4
20260502034503 47 168 1.0 2.0 0.00 0.00 0.00 92 1017.4
20260502033003 47 181 1.0 2.0 0.00 0.00 0.00 92 1017.5
20260502031503 48 0 0.0 1.0 0.00 0.00 0.00 92 1017.5
20260502030004 48 0 0.0 1.0 0.00 0.00 0.00 91 1017.5
20260502023003 49 243 1.0 2.0 0.00 0.00 0.00 91 1017.6
20260502020005 50 240 1.0 2.0 0.00 0.00 0.00 92 1017.8
20260502014503 50 241 1.0 3.0 0.00 0.00 0.00 92 1017.9
20260502013003 48 0 0.0 2.0 0.00 0.00 0.00 90 1018.1
20260502011504 49 0 0.0 1.0 0.00 0.00 0.00 89 1018.2
20260502010004 50 237 1.0 1.0 0.00 0.00 0.00 89 1018.2
20260502004504 50 244 1.0 2.0 0.00 0.00 0.00 89 1018.5
20260502003004 51 245 1.0 2.0 0.00 0.00 0.00 88 1018.6
20260502000004 53 251 1.0 3.0 0.00 0.00 0.00 88 1018.7
20260501234503 53 253 1.0 3.0 0.00 0.00 0.00 87 1018.7
20260501233003 55 247 1.0 3.0 0.00 0.00 0.00 86 1018.7
20260501231503 55 257 2.0 5.0 0.00 0.00 0.00 87 1018.9
20260501230007 55 252 1.0 5.0 0.00 0.00 0.00 87 1018.8
20260501224504 56 237 1.0 3.0 0.00 0.00 0.00 87 1018.8
20260501223003 56 246 2.0 5.0 0.00 0.00 0.00 87 1018.7
20260501221504 56 246 1.0 5.0 0.00 0.00 0.00 86 1018.7
20260501214504 56 250 1.0 4.0 0.00 0.00 0.00 87 1018.8
20260501213004 56 249 1.0 3.0 0.00 0.00 0.00 87 1018.7
20260501211504 56 256 2.0 6.0 0.00 0.00 0.00 86 1018.6
20260501210005 56 262 1.0 3.0 0.00 0.00 0.00 86 1018.6
20260501201504 56 253 3.0 5.0 0.00 0.00 0.00 84 1018.7
20260501200004 56 253 2.0 4.0 0.00 0.00 0.00 84 1018.7
20260501193004 57 253 2.0 6.0 0.00 0.00 0.00 82 1018.6
20260501191504 58 258 2.0 7.0 0.00 0.00 0.00 80 1018.6
20260501190004 58 253 3.0 6.0 0.00 0.00 0.00 81 1018.5
20260501184504 59 248 3.0 7.0 0.00 0.00 0.00 81 1018.5
20260501183004 59 245 4.0 8.0 0.00 0.00 0.00 81 1018.5
20260501181503 60 246 4.0 8.0 0.00 0.00 0.00 80 1018.4
20260501180005 60 252 4.0 10.0 0.00 0.00 0.00 78 1018.3
20260501174504 61 244 4.0 10.0 0.00 0.00 0.00 77 1018.2
20260501173004 61 254 3.0 10.0 0.00 0.00 0.00 76 1018.1
20260501171503 62 251 4.0 10.0 0.00 0.00 0.00 74 1018.2
20260501170005 62 243 4.0 8.0 0.00 0.00 0.00 72 1018.1
20260501164503 63 245 5.0 11.0 0.00 0.00 0.00 67 1018.3
20260501163004 65 248 4.0 9.0 0.00 0.00 0.00 64 1018.2
20260501161503 66 246 5.0 13.0 0.00 0.00 0.00 62 1018.2